Probability
0 0 0 0 0 0 0 0 0 0 0 0 0 0 0 0 0 0 0 0 0 0 0 0 0 0 0 0 0 0 0 0 0 0 0 0 0 0 0 0 0 0 0
0 0 0 0 0 0 0 0 0 0 0 0 0 0 0 0 0 0 0 0 0 0 0 0 0 0 0 0 0 0 0 0 0 0 0 0 0 0 0 0 0 0 0
0 0 0 0 0 0 0 0 0 0 0 0 0 0 0 0 0 0 0 0 0 0 0 0 0 0 0 0 0 0 0 0 0 0 0 0 0 0 0 0 0 0 0
0 0 0 0 0 0 0 0 0 0 0 0 0 0 0 0 0 0 0 0 0 0 0 0 0 0 0 0 0 0 0 0 0 0 0 0 0 0 0 0 0 0 0
0 0 0 0 0 0 0 0 0 0 0 0 0 0 0 0 0 0 0 0 0 0 0 0 0 0 0 0 0 0 0 0 0 0 0 0 0 0 0 0 0 0 0
0 0 0 0 0 0 0 0 0 0 0 0 0 0 0 0 0 0 0 0 0 0 0 0 0 0 0 0 0 0 0 0 0 0 0 0 0 0 0 0 0 0 0
0 0 0 0 0 0 0 0 0 0 0 0 0 0 0 0 0 0 0 0 0 0 0 0 0 0 0 0 0 0 0 0 0 0 0 0 0 0 0 0 0 0 0
0 0 0 0 0 0 0 0 0 0 0 0 0 0 0 0 0 0 0 0 0 0 0 0 0 0 0 0 0 0 0 0 0 0 0 0 0 0 0 0 0 0 0
0 0 0 0 0 0 0 0 0 0 0 0 0 0 0 0 0 0 0 0 0 0 0 0 0 0 0 0 0 0 0 0 0 0 0 0 0 0 0 0 0 0 0
0 0 0 0 0 0 0 0 0 0 0 0 0 0 0 0 0 0 0 0 0 0 0 0 0 0 0 0 0 0 0 0 0 0 0 0 0 0 0 0 0 0 0
0 0 0 0 0 0 0 0 0 0 0 0 0 0 0 0 0 0 0 0 0 0 0 0 0 0 0 0 0 0 0 0 0 0 0 0 0 0 0 0 0 0 0
0 0 0 0 0 0 0 0 0 0 0 0 0 0 0 0 0 0 0 0 0 0 0 0 0 0 0 0 0 0 0 0 0 0 0 0 0 0 0 0 0 0 0
0 0 0 0 0 0 0 0 0 0 0 0 0 0 0 0 0 0 0 0 0 0 0 0 0 0 0 0 0 0 0 0 0 0 0 0 0 0 0 0 0 0 0
0 0 0 0 0 0 0 0 0 0 0 0 0 0 0 0 0 0 0 0 0 0 0 0 0 0 0 0 0 0 0 0 0 0 0 0 0 0 0 0 0 0 0
0 0 0 0 0 0 0 0 0 0 0 0 0 0 0 0 0 0 0 0 0 0 0 0 0 0 0 0 0 0 0 0 0 0 0 0 0 0 0 0 0 0 0
0 0 0 0 0 0 0 0 0 0 0 0 0 0 0 0 0 0 0 0 0 0 0 0 0 0 0 0 0 0 0 0 0 0 0 0 0 0 0 0 0 0 0
0 0 0 0 0 0 0 0 0 0 0 0 0 0 0 0 0 0 0 0 0 0 0 0 0 0 0 0 0 0 0 0 0 0 0 0 0 0 0 0 0 0 0
0 0 0 0 0 0 0 0 0 0 0 0 0 0 0 0 0 0 0 0 0 0 0 0 0 0 0 0 0 0 0 0 0 0 0 0 0 0 0 0 0 0 0
0 0 0 0 0 0 0 0 0 0 0 0 0 0 0 0 0 0 0 0 0 0 0 0 0 0 0 0 0 0 0 0 0 0 0 0 0 0 0 0 0 0 0
0 0 0 0 0 0 0 0 0 0 0 0 0 0 0 0 0 0 0 0 0 0 0 0 0 0 0 0 0 0 0 0 0 0 0 0 0 0 0 0 0 0 0
0 0 0 0 0 0 0 0 0 0 0 0 0 0 0 0 0 0 0 0 0 0 0 0 0 0 0 0 0 0 0 0 0 0 0 0 0 0 0 0 0 0 0
0 0 0 0 0 0 0 0 0 0 0 0 0 0 0 0 0 0 0 0 0 0 0 0 0 0 0 0 0 0 0 0 0 0 0 0 0 0 0 0 0 0 0
0 0 0 0 0 0 0 0 0 0 0 0 0 0 0 0 0 0 0 0 0 0 0 0 0 0 0 0 0 0 0 0 0 0 0 0 0 0 0 0 0 0 0
0 0 0 0 0 0 0 0 0 0 0 0 0 0 0 0 0 0 0 0 0 0 0 0 0 0 0 0 0 0 0 0 0 0 0 0 0 0 0 0 0 0 0
0 0 0 0 0 0 0 0 0 0 0 0 0 0 0 0 0 0 0 0 0 0 0 0 0 0 0 0 0 0 0 0 0 0 0 0 0 0 0 0 0 0 0
0 0 0 0 0 0 0 0 0 0 0 0 0 0 0 0 0 0 0 0 0 0 0 0 0 0 0 0 0 0 0 0 0 0 0 0 0 0 0 0 0 0 0
Wind_Speed
2 3 3 3 4 4 4 4 4 4 4 4 4 4 4 4 4 4 4 4 5 4 4 4 5 5 4 4 4 4 5 6 8 8 6 6 8 8 8 8 8 8 7
3 2 3 3 3 3 4 4 4 4 4 4 4 4 4 4 4 5 5 5 5 5 5 5 5 4 5 5 4 5 5 6 8 10 8 7 8 8 9 9 7 7 7
2 2 3 3 3 3 4 3 4 4 4 4 4 4 4 4 4 4 5 5 5 6 5 6 6 6 6 5 5 5 5 6 7 8 8 7 7 6 8 8 8 7 7
3 3 3 3 4 4 3 3 3 4 4 4 4 4 4 4 4 4 5 5 5 5 5 6 6 6 6 6 6 7 6 7 7 7 7 7 7 7 7 7 7 6 7
3 3 4 3 3 3 3 3 3 3 3 3 3 4 4 4 4 4 5 5 5 6 6 6 6 6 7 7 6 6 7 6 6 6 7 7 7 6 6 6 8 7 7
3 4 3 3 3 3 3 3 3 3 3 3 4 4 4 4 5 6 6 5 5 6 6 6 6 6 6 9 10 10 9 8 7 7 7 8 8 8 7 7 7 7 7
3 3 3 3 3 3 3 3 3 4 3 4 4 4 5 5 7 7 7 6 6 6 6 6 5 5 6 7 8 9 10 11 12 10 9 9 9 8 8 8 8 8 8
4 4 4 3 4 3 3 4 4 3 4 4 4 5 5 6 7 7 7 6 6 6 6 6 7 7 6 7 7 7 8 8 9 9 9 10 9 8 8 8 9 9 9
4 4 4 4 4 4 4 4 4 4 4 4 4 5 5 6 7 7 7 5 5 6 6 7 7 7 9 9 8 8 8 7 8 10 11 11 12 11 9 6 6 7 8
5 5 4 4 5 5 5 4 4 4 4 4 4 5 6 6 7 8 7 4 5 6 6 6 7 8 10 10 8 8 9 8 7 7 8 9 8 8 8 6 6 6 6
4 4 4 4 5 5 4 4 4 3 4 4 5 5 5 6 7 8 8 5 5 6 5 5 5 9 11 11 10 8 9 9 7 6 6 6 5 4 4 4 5 5 6
3 3 4 4 4 3 4 4 4 4 4 4 5 5 5 5 6 7 9 9 7 6 6 5 5 8 10 11 9 9 10 8 5 5 5 5 5 4 4 4 5 5 6
3 4 4 3 4 4 4 4 4 4 4 4 4 5 5 4 5 8 9 10 10 7 5 7 8 9 9 8 8 9 7 5 4 5 5 5 4 4 4 4 5 5 6
4 4 3 4 4 3 4 4 4 4 4 5 5 5 5 4 4 4 4 5 6 6 6 6 8 8 8 7 5 5 4 4 4 5 5 4 4 4 4 4 5 5 5
4 4 4 4 4 4 4 4 5 6 6 6 5 5 5 6 6 7 5 4 4 4 4 4 4 4 4 4 4 4 4 3 4 4 4 4 4 4 4 4 4 4 5
4 4 4 3 3 4 4 4 7 8 8 10 9 8 7 9 10 9 9 9 8 6 4 4 5 5 5 5 5 4 4 4 4 4 4 4 4 4 4 4 4 5 5
5 4 4 4 4 4 4 4 5 6 8 9 11 11 11 11 11 11 10 9 8 6 5 5 5 5 5 5 5 5 5 4 3 4 4 4 4 4 4 4 4 5 5
5 5 4 4 4 4 5 5 5 5 6 6 7 10 11 11 11 10 9 6 5 5 5 6 6 6 5 5 5 5 4 4 3 4 4 4 4 4 4 5 5 5 5
4 4 4 4 4 4 4 5 5 6 6 6 5 6 7 9 9 9 7 5 6 6 6 6 6 5 5 5 5 5 5 4 4 4 4 4 4 4 5 5 5 6 6
4 5 4 4 4 4 4 5 5 5 6 6 6 5 4 4 5 5 5 5 5 6 6 6 5 5 5 5 5 4 4 5 5 4 4 4 4 4 5 6 5 5 5
3 3 4 4 4 4 4 5 5 5 6 6 6 6 7 5 5 6 5 5 6 6 6 6 5 5 5 5 5 5 6 5 5 5 5 4 4 4 5 5 5 5 5
3 3 3 4 4 4 5 5 5 5 6 7 6 6 8 5 5 6 6 6 6 6 5 5 5 5 5 5 5 6 6 6 5 5 5 4 4 4 4 4 4 5 5
3 3 4 4 4 4 5 5 5 5 6 6 6 5 5 5 5 6 6 5 5 5 4 5 5 5 5 5 5 6 6 6 6 6 5 5 4 4 5 5 6 6 5
3 4 4 4 4 4 4 5 5 5 6 6 5 5 5 5 6 6 6 5 5 5 5 5 6 7 9 7 5 5 6 6 6 5 7 6 6 5 5 5 6 6 6
3 3 4 4 4 4 4 5 5 5 5 5 5 5 5 5 5 6 5 5 6 6 7 6 5 6 8 9 8 7 8 9 7 5 5 6 7 6 6 6 5 5 5
3 4 4 3 4 4 4 5 5 5 5 5 5 5 5 5 6 6 5 5 5 6 6 6 7 8 9 8 9 9 9 9 8 8 6 5 6 6 6 5 7 6 6
Wind_Direction
248 243 242 244 241 237 237 240 242 248 249 246 244 248 250 250 245 239 242 245 245 250 252 252 257 261 263 263 260 262 264 266 271 281 284 290 292 292 294 291 289 291 292
252 241 242 249 244 242 245 248 243 244 247 250 248 245 248 249 249 245 244 244 245 250 254 255 260 261 262 265 264 263 265 266 270 279 285 289 288 288 289 289 291 289 289
246 238 241 244 243 246 251 256 255 250 247 247 248 247 249 252 252 253 251 248 248 253 257 258 260 260 262 265 266 265 265 267 267 275 283 288 289 293 295 292 292 290 290
239 232 239 246 244 244 248 250 253 253 251 248 248 249 251 253 253 257 258 255 256 258 259 260 262 261 262 266 266 266 268 269 269 272 278 285 288 294 291 293 293 294 293
238 237 244 250 252 250 247 247 248 249 253 257 257 256 255 255 253 255 255 258 260 260 260 261 263 267 270 269 270 270 268 267 269 271 276 282 286 293 290 293 292 296 293
235 242 247 243 242 245 245 241 241 247 252 254 256 258 257 255 260 259 260 261 261 261 263 264 263 261 262 266 271 274 273 269 268 269 273 277 284 288 292 293 295 298 296
244 250 248 242 243 247 247 242 244 247 251 252 257 259 261 261 264 265 263 265 263 264 265 267 267 270 268 266 271 273 273 271 268 268 272 275 282 285 289 287 285 288 288
252 256 254 247 248 250 246 247 250 249 248 251 256 257 261 265 268 269 271 263 263 265 266 267 268 270 269 272 272 273 272 273 271 268 270 276 282 287 283 283 286 288 287
251 253 251 246 247 246 246 250 249 247 249 252 257 259 262 267 267 270 273 268 265 268 270 269 269 268 270 272 275 277 278 280 281 276 276 279 285 289 291 287 282 281 284
252 253 251 243 244 246 249 251 248 243 249 255 257 258 260 264 266 267 267 261 266 270 271 269 267 269 273 273 271 272 276 281 285 286 280 281 282 285 288 282 281 279 287
260 256 250 243 243 247 252 250 248 244 248 252 257 260 260 263 265 264 264 260 262 268 270 272 272 275 278 277 274 270 274 285 284 279 278 277 276 274 274 275 275 274 275
253 250 249 245 242 240 244 247 243 239 245 253 261 266 264 264 263 266 265 263 269 267 268 272 276 280 280 280 277 277 284 287 279 276 273 273 274 274 275 277 277 275 273
245 247 248 246 240 235 234 238 238 234 243 254 259 266 271 269 265 264 266 267 267 266 270 275 281 283 282 279 278 283 283 276 272 270 270 274 280 284 282 278 274 269 268
240 249 248 244 246 240 236 234 236 234 239 248 255 262 271 272 269 268 266 268 264 264 274 280 280 279 277 281 284 276 270 270 270 269 273 277 280 277 275 279 280 279 276
244 248 248 246 247 246 243 240 240 243 242 248 251 254 261 266 268 276 278 271 267 266 276 274 273 273 270 271 271 268 266 264 261 267 271 274 274 274 276 278 274 273 271
242 245 245 246 245 247 253 262 252 254 261 259 262 266 267 270 282 276 273 274 275 276 271 263 263 263 264 266 266 268 265 263 264 265 264 266 271 274 277 279 274 269 273
239 246 248 246 245 244 247 254 270 269 260 261 264 266 267 273 275 276 275 276 274 263 251 255 257 258 261 263 263 262 262 263 263 260 261 264 267 270 272 274 272 269 271
249 250 248 249 250 249 249 252 256 262 271 270 266 266 271 272 275 276 278 275 263 254 251 254 257 259 260 260 260 260 262 263 257 258 261 262 263 266 268 270 270 270 274
250 252 252 255 254 254 255 256 257 258 263 271 277 272 267 272 273 271 271 257 256 256 254 255 257 259 260 259 258 258 258 257 259 258 257 258 258 260 263 268 271 271 270
252 254 256 256 256 255 254 255 257 259 261 263 265 271 276 268 263 265 256 253 255 258 259 259 258 258 259 258 257 254 256 256 254 253 256 256 256 257 260 262 265 267 266
257 254 247 251 251 253 254 255 258 260 262 266 269 269 270 267 265 266 263 258 255 256 259 261 260 258 255 253 252 250 251 253 251 251 252 253 255 256 259 259 261 262 266
253 253 250 250 254 254 256 257 258 259 262 266 273 276 271 266 265 265 265 265 263 258 256 258 261 260 253 250 249 250 249 249 247 245 247 249 250 253 256 258 261 264 262
254 256 258 257 257 258 259 257 257 260 263 267 271 275 272 269 270 271 272 273 273 270 264 256 258 260 260 256 252 247 248 249 249 245 244 244 244 246 247 251 253 259 262
249 251 255 260 260 259 259 261 262 263 265 268 270 271 271 273 276 278 281 282 279 273 266 260 257 258 262 265 260 253 253 258 260 249 240 239 240 241 242 246 249 250 255
250 251 253 254 256 259 262 264 265 266 267 270 271 273 275 276 277 278 279 279 281 280 276 271 264 261 262 265 264 262 260 261 257 252 242 236 236 237 240 245 248 252 252
252 253 253 253 254 256 259 263 265 267 268 270 270 272 274 276 277 279 280 278 278 279 279 277 272 271 271 269 266 265 263 260 253 246 241 236 233 233 233 238 242 245 249